#datetime,building,power
2023-08-03T00:00:00,pth,1.20
2023-08-03T00:03:00,pth,2.40
2023-08-03T00:05:00,pth,1.20
2023-08-03T00:07:00,pth,1.20
2023-08-03T00:09:00,pth,1.20
2023-08-03T00:10:00,pth,1.20
2023-08-03T00:12:00,pth,1.20
2023-08-03T00:14:00,pth,2.40
2023-08-03T00:17:00,pth,2.40
2023-08-03T00:19:00,pth,1.20
2023-08-03T00:20:00,pth,1.20
2023-08-03T00:23:00,pth,1.20
2023-08-03T00:25:00,pth,2.40
2023-08-03T00:27:00,pth,1.20
2023-08-03T00:28:00,pth,1.20
2023-08-03T00:30:00,pth,1.20
2023-08-03T00:32:00,pth,1.20
2023-08-03T00:34:00,pth,1.20
2023-08-03T00:36:00,pth,1.20
2023-08-03T00:37:00,pth,1.20
2023-08-03T00:39:00,pth,1.20
2023-08-03T00:40:00,pth,1.20
2023-08-03T00:41:00,pth,1.20
2023-08-03T00:43:00,pth,1.20
2023-08-03T00:44:00,pth,1.20
2023-08-03T00:46:00,pth,1.20
2023-08-03T00:47:00,pth,1.20
2023-08-03T00:49:00,pth,1.20
2023-08-03T00:51:00,pth,2.40
2023-08-03T00:53:00,pth,1.20
2023-08-03T00:54:00,pth,1.20
2023-08-03T00:56:00,pth,1.20
2023-08-03T00:58:00,pth,2.40
2023-08-03T00:59:00,pth,1.20
2023-08-03T01:01:00,pth,1.20
2023-08-03T01:03:00,pth,2.40
2023-08-03T01:05:00,pth,1.20
2023-08-03T01:06:00,pth,1.20
2023-08-03T01:08:00,pth,1.20
2023-08-03T01:09:00,pth,1.20
2023-08-03T01:10:00,pth,1.20
2023-08-03T01:12:00,pth,1.20
2023-08-03T01:14:00,pth,1.20
2023-08-03T01:15:00,pth,1.20
2023-08-03T01:16:00,pth,1.20
2023-08-03T01:18:00,pth,1.20
2023-08-03T01:20:00,pth,2.40
2023-08-03T01:22:00,pth,1.20
2023-08-03T01:23:00,pth,1.20
2023-08-03T01:26:00,pth,2.40
2023-08-03T01:28:00,pth,1.20
2023-08-03T01:30:00,pth,2.40
2023-08-03T01:33:00,pth,2.40
2023-08-03T01:35:00,pth,1.20
2023-08-03T01:36:00,pth,1.20
2023-08-03T01:38:00,pth,1.20
2023-08-03T01:39:00,pth,1.20
2023-08-03T01:41:00,pth,1.20
2023-08-03T01:43:00,pth,2.40
2023-08-03T01:46:00,pth,2.40
2023-08-03T01:48:00,pth,1.20
2023-08-03T01:49:00,pth,1.20
2023-08-03T01:50:00,pth,1.20
2023-08-03T01:52:00,pth,1.20
2023-08-03T01:54:00,pth,2.40
2023-08-03T01:57:00,pth,2.40
2023-08-03T01:59:00,pth,1.20
2023-08-03T02:01:00,pth,2.40
2023-08-03T02:03:00,pth,1.20
2023-08-03T02:05:00,pth,1.20
2023-08-03T02:07:00,pth,2.40
2023-08-03T02:09:00,pth,1.20
2023-08-03T02:11:00,pth,1.20
2023-08-03T02:12:00,pth,1.20
2023-08-03T02:13:00,pth,1.20
2023-08-03T02:15:00,pth,1.20
2023-08-03T02:18:00,pth,2.40
2023-08-03T02:20:00,pth,1.20
2023-08-03T02:22:00,pth,1.20
2023-08-03T02:24:00,pth,1.20
2023-08-03T02:26:00,pth,2.40
2023-08-03T02:29:00,pth,2.40
2023-08-03T02:32:00,pth,1.20
2023-08-03T02:33:00,pth,1.20
2023-08-03T02:34:00,pth,1.20
2023-08-03T02:36:00,pth,1.20
2023-08-03T02:38:00,pth,1.20
2023-08-03T02:40:00,pth,1.20
2023-08-03T02:42:00,pth,2.40
2023-08-03T02:44:00,pth,1.20
2023-08-03T02:45:00,pth,1.20
2023-08-03T02:47:00,pth,1.20
2023-08-03T02:49:00,pth,1.20
2023-08-03T02:50:00,pth,1.20
2023-08-03T02:52:00,pth,1.20
2023-08-03T02:53:00,pth,1.20
2023-08-03T02:55:00,pth,1.20
2023-08-03T02:57:00,pth,1.20
2023-08-03T02:59:00,pth,1.20
2023-08-03T03:00:00,pth,1.20
2023-08-03T03:02:00,pth,1.20
2023-08-03T03:03:00,pth,1.20
2023-08-03T03:05:00,pth,1.20
2023-08-03T03:06:00,pth,1.20
2023-08-03T03:08:00,pth,1.20
2023-08-03T03:11:00,pth,2.40
2023-08-03T03:14:00,pth,2.40
2023-08-03T03:17:00,pth,2.40
2023-08-03T03:20:00,pth,1.20
2023-08-03T03:21:00,pth,1.20
2023-08-03T03:23:00,pth,1.20
2023-08-03T03:25:00,pth,2.40
2023-08-03T03:28:00,pth,1.20
2023-08-03T03:29:00,pth,1.20
2023-08-03T03:31:00,pth,1.20
2023-08-03T03:33:00,pth,1.20
2023-08-03T03:35:00,pth,2.40
2023-08-03T03:37:00,pth,1.20
2023-08-03T03:39:00,pth,1.20
2023-08-03T03:41:00,pth,1.20
2023-08-03T03:42:00,pth,1.20
2023-08-03T03:44:00,pth,1.20
2023-08-03T03:45:00,pth,1.20
2023-08-03T03:48:00,pth,2.40
2023-08-03T03:50:00,pth,1.20
2023-08-03T03:51:00,pth,1.20
2023-08-03T03:53:00,pth,1.20
2023-08-03T03:55:00,pth,1.20
2023-08-03T03:57:00,pth,1.20
2023-08-03T03:58:00,pth,1.20
2023-08-03T04:00:00,pth,1.20
2023-08-03T04:01:00,pth,1.20
2023-08-03T04:02:00,pth,1.20
2023-08-03T04:03:00,pth,1.20
2023-08-03T04:05:00,pth,1.20
2023-08-03T04:07:00,pth,1.20
2023-08-03T04:09:00,pth,2.40
2023-08-03T04:11:00,pth,1.20
2023-08-03T04:13:00,pth,1.20
2023-08-03T04:15:00,pth,1.20
2023-08-03T04:17:00,pth,2.40
2023-08-03T04:19:00,pth,1.20
2023-08-03T04:22:00,pth,2.40
2023-08-03T04:24:00,pth,1.20
2023-08-03T04:26:00,pth,1.20
2023-08-03T04:28:00,pth,2.40
2023-08-03T04:30:00,pth,1.20
2023-08-03T04:32:00,pth,2.40
2023-08-03T04:34:00,pth,1.20
2023-08-03T04:35:00,pth,1.20
2023-08-03T04:37:00,pth,1.20
2023-08-03T04:39:00,pth,1.20
2023-08-03T04:40:00,pth,1.20
2023-08-03T04:42:00,pth,2.40
2023-08-03T04:45:00,pth,2.40
2023-08-03T04:47:00,pth,1.20
2023-08-03T04:49:00,pth,2.40
2023-08-03T04:52:00,pth,2.40
2023-08-03T04:54:00,pth,1.20
2023-08-03T04:55:00,pth,1.20
2023-08-03T04:56:00,pth,1.20
2023-08-03T04:58:00,pth,1.20
2023-08-03T05:00:00,pth,1.20
2023-08-03T05:02:00,pth,2.40
2023-08-03T05:03:00,pth,1.20
2023-08-03T05:06:00,pth,2.40
2023-08-03T05:08:00,pth,1.20
2023-08-03T05:10:00,pth,2.40
2023-08-03T05:12:00,pth,1.20
2023-08-03T05:13:00,pth,1.20
2023-08-03T05:15:00,pth,1.20
2023-08-03T05:17:00,pth,2.40
2023-08-03T05:19:00,pth,1.20
2023-08-03T05:21:00,pth,1.20
2023-08-03T05:23:00,pth,2.40
2023-08-03T05:25:00,pth,2.40
2023-08-03T05:27:00,pth,1.20
2023-08-03T05:28:00,pth,1.20
2023-08-03T05:30:00,pth,2.40
2023-08-03T05:32:00,pth,2.40
2023-08-03T05:33:00,pth,1.20
2023-08-03T05:35:00,pth,2.40
2023-08-03T05:37:00,pth,2.40
2023-08-03T05:38:00,pth,1.20
2023-08-03T05:39:00,pth,1.20
2023-08-03T05:41:00,pth,1.20
2023-08-03T05:43:00,pth,1.20
2023-08-03T05:45:00,pth,1.20
2023-08-03T05:47:00,pth,2.40
2023-08-03T05:49:00,pth,1.20
2023-08-03T05:51:00,pth,1.20
2023-08-03T05:53:00,pth,2.40
2023-08-03T05:54:00,pth,1.20
2023-08-03T05:56:00,pth,1.20
2023-08-03T05:58:00,pth,2.40
2023-08-03T06:01:00,pth,2.40
2023-08-03T06:03:00,pth,1.20
2023-08-03T06:04:00,pth,1.20
2023-08-03T06:05:00,pth,1.20
2023-08-03T06:07:00,pth,1.20
2023-08-03T06:08:00,pth,1.20
2023-08-03T06:10:00,pth,2.40
2023-08-03T06:12:00,pth,1.20
2023-08-03T06:14:00,pth,2.40
2023-08-03T06:17:00,pth,2.40
2023-08-03T06:18:00,pth,1.20
2023-08-03T06:20:00,pth,1.20
2023-08-03T06:21:00,pth,1.20
2023-08-03T06:23:00,pth,1.20
2023-08-03T06:25:00,pth,2.40
2023-08-03T06:26:00,pth,1.20
2023-08-03T06:29:00,pth,2.40
2023-08-03T06:31:00,pth,1.20
2023-08-03T06:33:00,pth,1.20
2023-08-03T06:35:00,pth,1.20
2023-08-03T06:37:00,pth,2.40
2023-08-03T06:39:00,pth,1.20
2023-08-03T06:41:00,pth,1.20
2023-08-03T06:43:00,pth,1.20
2023-08-03T06:45:00,pth,1.20
2023-08-03T06:47:00,pth,1.20
2023-08-03T06:51:00,pth,1.20
2023-08-03T06:52:00,pth,1.20
2023-08-03T06:54:00,pth,1.20
2023-08-03T06:55:00,pth,1.20
2023-08-03T06:57:00,pth,1.20
2023-08-03T06:59:00,pth,1.20
2023-08-03T07:00:00,pth,1.20
2023-08-03T07:02:00,pth,1.20
2023-08-03T07:04:00,pth,1.20
2023-08-03T07:06:00,pth,1.20
2023-08-03T07:08:00,pth,1.20
2023-08-03T07:11:00,pth,1.20
2023-08-03T07:13:00,pth,1.20
2023-08-03T07:15:00,pth,1.20
2023-08-03T07:17:00,pth,1.20
2023-08-03T07:18:00,pth,1.20
2023-08-03T07:22:00,pth,1.20
2023-08-03T07:24:00,pth,1.20
2023-08-03T07:25:00,pth,1.20
2023-08-03T07:27:00,pth,1.20
2023-08-03T07:30:00,pth,1.20
2023-08-03T07:32:00,pth,1.20
2023-08-03T07:34:00,pth,1.20
2023-08-03T07:37:00,pth,1.20
2023-08-03T07:38:00,pth,1.20
2023-08-03T07:40:00,pth,1.20
2023-08-03T07:43:00,pth,1.20
2023-08-03T07:46:00,pth,1.20
2023-08-03T07:47:00,pth,1.20
2023-08-03T07:49:00,pth,1.20
2023-08-03T07:51:00,pth,1.20
2023-08-03T07:55:00,pth,1.20
2023-08-03T07:57:00,pth,1.20
2023-08-03T07:59:00,pth,1.20
2023-08-03T08:02:00,pth,1.20
2023-08-03T08:03:00,pth,1.20
2023-08-03T08:05:00,pth,1.20
2023-08-03T08:09:00,pth,1.20
2023-08-03T08:11:00,pth,1.20
2023-08-03T08:14:00,pth,1.20
2023-08-03T08:16:00,pth,1.20
2023-08-03T08:18:00,pth,1.20
2023-08-03T08:19:00,pth,1.20
2023-08-03T08:21:00,pth,1.20
2023-08-03T08:24:00,pth,1.20
2023-08-03T08:26:00,pth,1.20
2023-08-03T08:28:00,pth,2.40
2023-08-03T08:30:00,pth,1.20
2023-08-03T08:34:00,pth,1.20
2023-08-03T08:35:00,pth,1.20
2023-08-03T08:38:00,pth,2.40
2023-08-03T08:40:00,pth,1.20
2023-08-03T08:42:00,pth,1.20
2023-08-03T08:44:00,pth,1.20
2023-08-03T08:46:00,pth,1.20
2023-08-03T08:47:00,pth,1.20
2023-08-03T08:49:00,pth,2.40
2023-08-03T08:50:00,pth,2.40
2023-08-03T08:51:00,pth,2.40
2023-08-03T08:53:00,pth,1.20
2023-08-03T08:55:00,pth,2.40
2023-08-03T08:58:00,pth,1.20
2023-08-03T08:59:00,pth,1.20
2023-08-03T09:01:00,pth,1.20
2023-08-03T09:02:00,pth,1.20
2023-08-03T09:04:00,pth,1.20
2023-08-03T09:05:00,pth,1.20
2023-08-03T09:07:00,pth,1.20
2023-08-03T09:08:00,pth,1.20
2023-08-03T09:09:00,pth,1.20
2023-08-03T09:11:00,pth,1.20
2023-08-03T09:13:00,pth,1.20
2023-08-03T09:15:00,pth,1.20
2023-08-03T09:17:00,pth,2.40
2023-08-03T09:19:00,pth,1.20
2023-08-03T09:21:00,pth,1.20
2023-08-03T09:23:00,pth,1.20
2023-08-03T09:24:00,pth,1.20
2023-08-03T09:26:00,pth,1.20
2023-08-03T09:27:00,pth,1.20
2023-08-03T09:29:00,pth,1.20
2023-08-03T09:31:00,pth,1.20
2023-08-03T09:34:00,pth,1.20
2023-08-03T09:36:00,pth,1.20
2023-08-03T09:37:00,pth,1.20
2023-08-03T09:39:00,pth,1.20
2023-08-03T09:40:00,pth,1.20
2023-08-03T09:43:00,pth,1.20
2023-08-03T09:44:00,pth,1.20
2023-08-03T09:46:00,pth,1.20
2023-08-03T09:48:00,pth,1.20
2023-08-03T09:50:00,pth,2.40
2023-08-03T09:53:00,pth,2.40
2023-08-03T09:55:00,pth,1.20
2023-08-03T09:57:00,pth,1.20
2023-08-03T09:59:00,pth,1.20
2023-08-03T10:00:00,pth,1.20
2023-08-03T10:03:00,pth,2.40
2023-08-03T10:06:00,pth,1.20
2023-08-03T10:08:00,pth,1.20
2023-08-03T10:10:00,pth,2.40
2023-08-03T10:13:00,pth,2.40
2023-08-03T10:15:00,pth,1.20
2023-08-03T10:17:00,pth,1.20
2023-08-03T10:19:00,pth,1.20
2023-08-03T10:21:00,pth,2.40
2023-08-03T10:23:00,pth,1.20
2023-08-03T10:24:00,pth,2.40
2023-08-03T10:25:00,pth,2.40
2023-08-03T10:26:00,pth,1.20
2023-08-03T10:28:00,pth,3.60
2023-08-03T10:30:00,pth,4.80
2023-08-03T10:32:00,pth,2.40
2023-08-03T10:34:00,pth,2.40
2023-08-03T10:36:00,pth,2.40
2023-08-03T10:38:00,pth,2.40
2023-08-03T10:40:00,pth,2.40
2023-08-03T10:42:00,pth,2.40
2023-08-03T10:44:00,pth,1.20
2023-08-03T10:46:00,pth,2.40
2023-08-03T10:47:00,pth,1.20
2023-08-03T10:49:00,pth,2.40
2023-08-03T10:50:00,pth,1.20
2023-08-03T10:52:00,pth,2.40
2023-08-03T10:54:00,pth,2.40
2023-08-03T10:57:00,pth,2.40
2023-08-03T11:00:00,pth,2.40
2023-08-03T11:02:00,pth,10.80
2023-08-03T11:04:00,pth,13.20
2023-08-03T11:06:00,pth,13.20
2023-08-03T11:08:00,pth,13.20
2023-08-03T11:09:00,pth,6.00
2023-08-03T11:11:00,pth,13.20
2023-08-03T11:12:00,pth,7.20
2023-08-03T11:14:00,pth,12.00
2023-08-03T11:15:00,pth,7.20
2023-08-03T11:17:00,pth,13.20
2023-08-03T11:18:00,pth,7.20
2023-08-03T11:20:00,pth,13.20
2023-08-03T11:21:00,pth,6.00
2023-08-03T11:23:00,pth,13.20
2023-08-03T11:25:00,pth,13.20
2023-08-03T11:26:00,pth,6.00
2023-08-03T11:27:00,pth,7.20
2023-08-03T11:29:00,pth,13.20
2023-08-03T11:31:00,pth,12.00
2023-08-03T11:33:00,pth,9.60
2023-08-03T11:36:00,pth,12.00
2023-08-03T11:37:00,pth,6.00
2023-08-03T11:39:00,pth,6.00
2023-08-03T11:41:00,pth,8.40
2023-08-03T11:42:00,pth,7.20
2023-08-03T11:43:00,pth,4.80
2023-08-03T11:45:00,pth,2.40
2023-08-03T11:47:00,pth,12.00
2023-08-03T11:49:00,pth,7.20
2023-08-03T11:51:00,pth,6.00
2023-08-03T11:52:00,pth,6.00
2023-08-03T11:53:00,pth,6.00
2023-08-03T11:55:00,pth,2.40
2023-08-03T11:56:00,pth,4.80
2023-08-03T11:58:00,pth,13.20
2023-08-03T12:00:00,pth,3.60
2023-08-03T12:01:00,pth,1.20
2023-08-03T12:03:00,pth,1.20
2023-08-03T12:06:00,pth,1.20
2023-08-03T12:07:00,pth,1.20
2023-08-03T12:11:00,pth,1.20
2023-08-03T12:12:00,pth,1.20
2023-08-03T12:14:00,pth,1.20
2023-08-03T12:16:00,pth,1.20
2023-08-03T12:19:00,pth,1.20
2023-08-03T12:21:00,pth,1.20
2023-08-03T12:23:00,pth,1.20
2023-08-03T12:24:00,pth,1.20
2023-08-03T12:26:00,pth,1.20
2023-08-03T12:27:00,pth,1.20
2023-08-03T12:29:00,pth,9.60
2023-08-03T12:31:00,pth,12.00
2023-08-03T12:32:00,pth,7.20
2023-08-03T12:33:00,pth,6.00
2023-08-03T12:35:00,pth,12.00
2023-08-03T12:36:00,pth,6.00
2023-08-03T12:38:00,pth,13.20
2023-08-03T12:39:00,pth,6.00
2023-08-03T12:40:00,pth,6.00
2023-08-03T12:42:00,pth,12.00
2023-08-03T12:44:00,pth,13.20
2023-08-03T12:46:00,pth,12.00
2023-08-03T12:48:00,pth,12.00
2023-08-03T12:49:00,pth,6.00
2023-08-03T12:51:00,pth,10.80
2023-08-03T12:52:00,pth,1.20
2023-08-03T12:54:00,pth,9.60
2023-08-03T12:55:00,pth,6.00
2023-08-03T12:56:00,pth,3.60
2023-08-03T12:58:00,pth,4.80
2023-08-03T12:59:00,pth,6.00
2023-08-03T13:01:00,pth,8.40
2023-08-03T13:02:00,pth,1.20
2023-08-03T13:04:00,pth,10.80
2023-08-03T13:06:00,pth,7.20
2023-08-03T13:08:00,pth,7.20
2023-08-03T13:10:00,pth,12.00
2023-08-03T13:11:00,pth,1.20
2023-08-03T13:12:00,pth,2.40
2023-08-03T13:14:00,pth,13.20
2023-08-03T13:16:00,pth,3.60
2023-08-03T13:18:00,pth,9.60
2023-08-03T13:20:00,pth,7.20
2023-08-03T13:21:00,pth,1.20
2023-08-03T13:22:00,pth,6.00
2023-08-03T13:24:00,pth,12.00
2023-08-03T13:26:00,pth,4.80
2023-08-03T13:28:00,pth,3.60
2023-08-03T13:30:00,pth,2.40
2023-08-03T13:32:00,pth,1.20
2023-08-03T13:34:00,pth,1.20
2023-08-03T13:36:00,pth,2.40
2023-08-03T13:39:00,pth,1.20
2023-08-03T13:40:00,pth,1.20
2023-08-03T13:42:00,pth,1.20
2023-08-03T13:44:00,pth,2.40
2023-08-03T13:46:00,pth,1.20
2023-08-03T13:47:00,pth,1.20
2023-08-03T13:49:00,pth,2.40
2023-08-03T13:52:00,pth,2.40
2023-08-03T13:55:00,pth,2.40
2023-08-03T13:57:00,pth,1.20
2023-08-03T13:59:00,pth,1.20
2023-08-03T14:00:00,pth,1.20
2023-08-03T14:03:00,pth,1.20
2023-08-03T14:05:00,pth,2.40
2023-08-03T14:08:00,pth,1.20
2023-08-03T14:09:00,pth,1.20
2023-08-03T14:11:00,pth,1.20
2023-08-03T14:12:00,pth,1.20
2023-08-03T14:14:00,pth,1.20
2023-08-03T14:16:00,pth,1.20
2023-08-03T14:18:00,pth,2.40
2023-08-03T14:21:00,pth,1.20
2023-08-03T14:23:00,pth,2.40
2023-08-03T14:25:00,pth,1.20
2023-08-03T14:27:00,pth,1.20
2023-08-03T14:30:00,pth,2.40
2023-08-03T14:32:00,pth,1.20
2023-08-03T14:34:00,pth,1.20
2023-08-03T14:35:00,pth,1.20
2023-08-03T14:37:00,pth,1.20
2023-08-03T14:38:00,pth,1.20
2023-08-03T14:40:00,pth,1.20
2023-08-03T14:42:00,pth,1.20
2023-08-03T14:44:00,pth,1.20
2023-08-03T14:46:00,pth,1.20
2023-08-03T14:47:00,pth,1.20
2023-08-03T14:49:00,pth,1.20
2023-08-03T14:50:00,pth,1.20
2023-08-03T14:52:00,pth,1.20
2023-08-03T14:54:00,pth,2.40
2023-08-03T14:56:00,pth,1.20
2023-08-03T14:58:00,pth,2.40
2023-08-03T15:00:00,pth,1.20
2023-08-03T15:02:00,pth,1.20
2023-08-03T15:03:00,pth,1.20
2023-08-03T15:06:00,pth,1.20
2023-08-03T15:08:00,pth,1.20
2023-08-03T15:10:00,pth,1.20
2023-08-03T15:11:00,pth,1.20
2023-08-03T15:14:00,pth,2.40
2023-08-03T15:16:00,pth,1.20
2023-08-03T15:17:00,pth,1.20
2023-08-03T15:19:00,pth,1.20
2023-08-03T15:21:00,pth,2.40
2023-08-03T15:22:00,pth,1.20
2023-08-03T15:25:00,pth,2.40
2023-08-03T15:27:00,pth,1.20
2023-08-03T15:28:00,pth,1.20
2023-08-03T15:30:00,pth,1.20
2023-08-03T15:32:00,pth,1.20
2023-08-03T15:33:00,pth,1.20
2023-08-03T15:35:00,pth,1.20
2023-08-03T15:37:00,pth,1.20
2023-08-03T15:40:00,pth,1.20
2023-08-03T15:41:00,pth,1.20
2023-08-03T15:43:00,pth,1.20
2023-08-03T15:45:00,pth,1.20
2023-08-03T15:47:00,pth,1.20
2023-08-03T15:49:00,pth,1.20
2023-08-03T15:52:00,pth,1.20
2023-08-03T15:53:00,pth,1.20
2023-08-03T15:56:00,pth,1.20
2023-08-03T15:58:00,pth,2.40
2023-08-03T16:01:00,pth,1.20
2023-08-03T16:03:00,pth,1.20
2023-08-03T16:04:00,pth,1.20
2023-08-03T16:06:00,pth,1.20
2023-08-03T16:08:00,pth,1.20
2023-08-03T16:10:00,pth,1.20
2023-08-03T16:12:00,pth,1.20
2023-08-03T16:13:00,pth,1.20
2023-08-03T16:15:00,pth,1.20
2023-08-03T16:17:00,pth,1.20
2023-08-03T16:20:00,pth,1.20
2023-08-03T16:22:00,pth,2.40
2023-08-03T16:24:00,pth,1.20
2023-08-03T16:27:00,pth,1.20
2023-08-03T16:28:00,pth,1.20
2023-08-03T16:29:00,pth,1.20
2023-08-03T16:32:00,pth,1.20
2023-08-03T16:33:00,pth,1.20
2023-08-03T16:35:00,pth,1.20
2023-08-03T16:38:00,pth,1.20
2023-08-03T16:40:00,pth,1.20
2023-08-03T16:42:00,pth,1.20
2023-08-03T16:45:00,pth,1.20
2023-08-03T16:47:00,pth,1.20
2023-08-03T16:49:00,pth,1.20
2023-08-03T16:51:00,pth,1.20
2023-08-03T16:53:00,pth,1.20
2023-08-03T16:55:00,pth,1.20
2023-08-03T16:57:00,pth,1.20
2023-08-03T16:59:00,pth,1.20
2023-08-03T17:02:00,pth,3.60
2023-08-03T17:04:00,pth,3.60
2023-08-03T17:06:00,pth,2.40
2023-08-03T17:08:00,pth,1.20
2023-08-03T17:10:00,pth,2.40
2023-08-03T17:12:00,pth,1.20
2023-08-03T17:14:00,pth,1.20
2023-08-03T17:17:00,pth,2.40
2023-08-03T17:19:00,pth,1.20
2023-08-03T17:22:00,pth,1.20
2023-08-03T17:24:00,pth,1.20
2023-08-03T17:25:00,pth,1.20
2023-08-03T17:27:00,pth,1.20
2023-08-03T17:29:00,pth,1.20
2023-08-03T17:31:00,pth,1.20
2023-08-03T17:33:00,pth,1.20
2023-08-03T17:35:00,pth,1.20
2023-08-03T17:37:00,pth,1.20
2023-08-03T17:41:00,pth,1.20
2023-08-03T17:42:00,pth,1.20
2023-08-03T17:44:00,pth,1.20
2023-08-03T17:46:00,pth,1.20
2023-08-03T17:50:00,pth,1.20
2023-08-03T17:51:00,pth,1.20
2023-08-03T17:53:00,pth,1.20
2023-08-03T17:56:00,pth,2.40
2023-08-03T17:58:00,pth,1.20
2023-08-03T17:59:00,pth,1.20
2023-08-03T18:01:00,pth,1.20
2023-08-03T18:03:00,pth,1.20
2023-08-03T18:05:00,pth,1.20
2023-08-03T18:07:00,pth,2.40
2023-08-03T18:10:00,pth,2.40
2023-08-03T18:12:00,pth,1.20
2023-08-03T18:14:00,pth,1.20
2023-08-03T18:15:00,pth,1.20
2023-08-03T18:17:00,pth,1.20
2023-08-03T18:18:00,pth,1.20
2023-08-03T18:20:00,pth,1.20
2023-08-03T18:22:00,pth,2.40
2023-08-03T18:24:00,pth,1.20
2023-08-03T18:25:00,pth,1.20
2023-08-03T18:27:00,pth,1.20
2023-08-03T18:29:00,pth,2.40
2023-08-03T18:31:00,pth,1.20
2023-08-03T18:33:00,pth,2.40
2023-08-03T18:35:00,pth,1.20
2023-08-03T18:38:00,pth,2.40
2023-08-03T18:40:00,pth,1.20
2023-08-03T18:42:00,pth,2.40
2023-08-03T18:45:00,pth,2.40
2023-08-03T18:47:00,pth,1.20
2023-08-03T18:49:00,pth,2.40
2023-08-03T18:51:00,pth,1.20
2023-08-03T18:52:00,pth,1.20
2023-08-03T18:54:00,pth,1.20
2023-08-03T18:55:00,pth,1.20
2023-08-03T18:57:00,pth,1.20
2023-08-03T18:59:00,pth,1.20
2023-08-03T19:01:00,pth,2.40
2023-08-03T19:03:00,pth,1.20
2023-08-03T19:04:00,pth,1.20
2023-08-03T19:06:00,pth,1.20
2023-08-03T19:08:00,pth,2.40
2023-08-03T19:09:00,pth,1.20
2023-08-03T19:11:00,pth,2.40
2023-08-03T19:13:00,pth,2.40
2023-08-03T19:14:00,pth,1.20
2023-08-03T19:16:00,pth,1.20
2023-08-03T19:18:00,pth,2.40
2023-08-03T19:19:00,pth,1.20
2023-08-03T19:21:00,pth,1.20
2023-08-03T19:22:00,pth,1.20
2023-08-03T19:24:00,pth,2.40
2023-08-03T19:27:00,pth,2.40
2023-08-03T19:30:00,pth,2.40
2023-08-03T19:32:00,pth,2.40
2023-08-03T19:34:00,pth,1.20
2023-08-03T19:36:00,pth,2.40
2023-08-03T19:38:00,pth,1.20
2023-08-03T19:40:00,pth,2.40
2023-08-03T19:42:00,pth,1.20
2023-08-03T19:44:00,pth,2.40
2023-08-03T19:46:00,pth,2.40
2023-08-03T19:49:00,pth,2.40
2023-08-03T19:50:00,pth,1.20
2023-08-03T19:52:00,pth,1.20
2023-08-03T19:54:00,pth,2.40
2023-08-03T19:55:00,pth,1.20
2023-08-03T19:57:00,pth,2.40
2023-08-03T19:59:00,pth,2.40
2023-08-03T20:00:00,pth,1.20
2023-08-03T20:02:00,pth,3.60
2023-08-03T20:04:00,pth,2.40
2023-08-03T20:06:00,pth,2.40
2023-08-03T20:08:00,pth,2.40
2023-08-03T20:09:00,pth,1.20
2023-08-03T20:11:00,pth,1.20
2023-08-03T20:12:00,pth,1.20
2023-08-03T20:14:00,pth,2.40
2023-08-03T20:15:00,pth,1.20
2023-08-03T20:17:00,pth,2.40
2023-08-03T20:19:00,pth,1.20
2023-08-03T20:21:00,pth,2.40
2023-08-03T20:23:00,pth,2.40
2023-08-03T20:25:00,pth,1.20
2023-08-03T20:27:00,pth,2.40
2023-08-03T20:29:00,pth,1.20
2023-08-03T20:31:00,pth,2.40
2023-08-03T20:33:00,pth,2.40
2023-08-03T20:36:00,pth,2.40
2023-08-03T20:38:00,pth,1.20
2023-08-03T20:39:00,pth,1.20
2023-08-03T20:40:00,pth,1.20
2023-08-03T20:42:00,pth,1.20
2023-08-03T20:44:00,pth,2.40
2023-08-03T20:46:00,pth,1.20
2023-08-03T20:47:00,pth,1.20
2023-08-03T20:48:00,pth,1.20
2023-08-03T20:50:00,pth,2.40
2023-08-03T20:51:00,pth,1.20
2023-08-03T20:54:00,pth,2.40
2023-08-03T20:56:00,pth,1.20
2023-08-03T20:58:00,pth,2.40
2023-08-03T21:00:00,pth,1.20
2023-08-03T21:02:00,pth,3.60
2023-08-03T21:04:00,pth,3.60
2023-08-03T21:06:00,pth,2.40
2023-08-03T21:07:00,pth,1.20
2023-08-03T21:09:00,pth,2.40
2023-08-03T21:11:00,pth,1.20
2023-08-03T21:12:00,pth,1.20
2023-08-03T21:13:00,pth,1.20
2023-08-03T21:15:00,pth,1.20
2023-08-03T21:16:00,pth,1.20
2023-08-03T21:18:00,pth,1.20
2023-08-03T21:19:00,pth,1.20
2023-08-03T21:20:00,pth,1.20
2023-08-03T21:21:00,pth,1.20
2023-08-03T21:23:00,pth,1.20
2023-08-03T21:24:00,pth,1.20
2023-08-03T21:26:00,pth,2.40
2023-08-03T21:28:00,pth,1.20
2023-08-03T21:29:00,pth,1.20
2023-08-03T21:30:00,pth,1.20
2023-08-03T21:32:00,pth,2.40
2023-08-03T21:35:00,pth,2.40
2023-08-03T21:37:00,pth,1.20
2023-08-03T21:39:00,pth,1.20
2023-08-03T21:41:00,pth,2.40
2023-08-03T21:43:00,pth,1.20
2023-08-03T21:44:00,pth,1.20
2023-08-03T21:46:00,pth,1.20
2023-08-03T21:48:00,pth,1.20
2023-08-03T21:50:00,pth,2.40
2023-08-03T21:51:00,pth,1.20
2023-08-03T21:53:00,pth,1.20
2023-08-03T21:55:00,pth,1.20
2023-08-03T21:56:00,pth,1.20
2023-08-03T21:58:00,pth,2.40
2023-08-03T22:01:00,pth,2.40
2023-08-03T22:03:00,pth,2.40
2023-08-03T22:05:00,pth,1.20
2023-08-03T22:07:00,pth,2.40
2023-08-03T22:09:00,pth,2.40
2023-08-03T22:11:00,pth,1.20
2023-08-03T22:13:00,pth,2.40
2023-08-03T22:15:00,pth,1.20
2023-08-03T22:17:00,pth,2.40
2023-08-03T22:19:00,pth,1.20
2023-08-03T22:21:00,pth,2.40
2023-08-03T22:24:00,pth,2.40
2023-08-03T22:25:00,pth,1.20
2023-08-03T22:27:00,pth,1.20
2023-08-03T22:29:00,pth,1.20
2023-08-03T22:31:00,pth,2.40
2023-08-03T22:32:00,pth,1.20
2023-08-03T22:34:00,pth,1.20
2023-08-03T22:35:00,pth,1.20
2023-08-03T22:38:00,pth,2.40
2023-08-03T22:41:00,pth,2.40
2023-08-03T22:43:00,pth,1.20
2023-08-03T22:45:00,pth,2.40
2023-08-03T22:47:00,pth,1.20
2023-08-03T22:49:00,pth,2.40
2023-08-03T22:52:00,pth,2.40
2023-08-03T22:54:00,pth,1.20
2023-08-03T22:55:00,pth,1.20
2023-08-03T22:57:00,pth,1.20
2023-08-03T22:59:00,pth,2.40
2023-08-03T23:01:00,pth,1.20
2023-08-03T23:03:00,pth,2.40
2023-08-03T23:05:00,pth,1.20
2023-08-03T23:06:00,pth,1.20
2023-08-03T23:07:00,pth,1.20
2023-08-03T23:09:00,pth,1.20
2023-08-03T23:10:00,pth,1.20
2023-08-03T23:12:00,pth,1.20
2023-08-03T23:14:00,pth,1.20
2023-08-03T23:15:00,pth,1.20
2023-08-03T23:17:00,pth,1.20
2023-08-03T23:19:00,pth,1.20
2023-08-03T23:20:00,pth,1.20
2023-08-03T23:22:00,pth,1.20
2023-08-03T23:23:00,pth,1.20
2023-08-03T23:25:00,pth,1.20
2023-08-03T23:27:00,pth,2.40
2023-08-03T23:30:00,pth,2.40
2023-08-03T23:33:00,pth,2.40
2023-08-03T23:35:00,pth,1.20
2023-08-03T23:37:00,pth,1.20
2023-08-03T23:38:00,pth,1.20
2023-08-03T23:40:00,pth,1.20
2023-08-03T23:42:00,pth,1.20
2023-08-03T23:44:00,pth,2.40
2023-08-03T23:46:00,pth,1.20
2023-08-03T23:47:00,pth,1.20
2023-08-03T23:49:00,pth,1.20
2023-08-03T23:51:00,pth,1.20
2023-08-03T23:52:00,pth,1.20
2023-08-03T23:54:00,pth,2.40
2023-08-03T23:56:00,pth,1.20
2023-08-03T23:57:00,pth,1.20
